sat.trackr.live / text

‹ back to catalog

STARLINK-37178

NORAD 68526 · 2026-068U

PAYLOAD ACTIVE UNKNOWN

§ Identity

Operator
Country
US
Launch date
2026-03-30
Launch site
AFETR
Launch vehicle
Mass (kg)
RCS (m²)

Purposes: comms

External: N2YO · Heavens-Above · Gunter

§ Orbital elements

Epoch: 2026-09-19T02:41:27.682080Z

Period
93.85 min
Inclination
53.1577°
Eccentricity
0.0001711
Mean motion
15.34403823 rev/d
Perigee alt
461.5 km
Apogee alt
463.9 km
Semi-major
6,840.8 km
B*
6.6639e-4
RAAN
300.5367°
Arg perigee
88.8755°
Mean anomaly
271.2444°
Rev number
2,669

§ Raw data

STARLINK-371781 68526U 26068U   26262.11212595  .00022208  00000+0  66639-3 0  99992 68526  53.1577 300.5367 0001711  88.8755 271.2444 15.34403823 26692

JSON: /api/v1/satellites/68526 · /tle

For live sub-satellite position, see the globe view (requires WebGL).

§ Visibility from observer

Set your observer location to see the next 7 days of passes ≥ 10°. The values pass through the URL so the page stays shareable.

No JS? Fill the form by hand. The geolocation button needs JavaScript.